Weather History for Victorville, CA

Change the Weather History Date:

Saturday, March 9, 2013

  Actual Average (KSBD) Record (KSBD)
Temperature  
Mean Temperature 47 °F -  
Max Temperature 57 °F 67 °F 80 °F (2011)
Min Temperature 37 °F 44 °F 44 °F (2011)
Degree Days  
Heating Degree Days 18    
Moisture  
Dew Point 31 °F    
Average Humidity 59    
Maximum Humidity 87    
Minimum Humidity 29    
Precipitation  
Precipitation 0.00 in - - ()
Sea Level Pressure  
Sea Level Pressure 30.08 in    
Wind  
Wind Speed 10 mph (SW)    
Max Wind Speed 21 mph    
Max Gust Speed 29 mph    
Visibility 10 miles    
Events      
Averages and records for this station are not official NWS values.
T = Trace of Precipitation, MM = Missing Value Source: NWS Daily Summary

Daily Weather History Graph

Daily Weather History Graph

Search for Another Location

Airport:

Trip Planner

Search our weather history database for the weather conditions in past years. The results will help you decide how hot, cold, wet, or windy it might be!

Date:

Astronomy

Mar. 09, 2013 Rise Set
Actual Time 6:07 AM PST 5:52 PM PST
Civil Twilight 5:42 AM PST 6:17 PM PST
Nautical Twilight 5:13 AM PST 6:46 PM PST
Astronomical Twilight 4:44 AM PST 7:16 PM PST
Moon 4:30 AM PST (3/9) 4:02 PM PST (3/9)
Length of Visible Light 12h 35m
Length of Day
11h 44m
Waning Crescent, 5% of the Moon is Illuminated
Mar 9
Waning Crescent
Mar 11
New
Mar 19
First Quarter
Mar 27
Full
Apr 2
Last Quarter

Hourly Weather History & Observations

Time (PST) Temp. Windchill Dew Point Humidity Pressure Visibility Wind Dir Wind Speed Gust Speed Precip Events Conditions
12:15 AM 41.0 °F 36.4 °F 32.0 °F 70% 29.97 in 10.0 mi South 6.9 mph - N/A   Clear
12:35 AM 37.4 °F 32.1 °F 33.8 °F 87% 29.97 in 10.0 mi South 6.9 mph - N/A   Scattered Clouds
12:55 AM 39.2 °F 33.0 °F 33.8 °F 81% 29.97 in 10.0 mi South 9.2 mph - N/A   Mostly Cloudy
1:15 AM 39.2 °F 33.0 °F 33.8 °F 81% 29.97 in 10.0 mi SSW 9.2 mph - N/A   Overcast
1:35 AM 39.2 °F 33.0 °F 33.8 °F 81% 29.97 in 10.0 mi SSW 9.2 mph - N/A   Overcast
1:55 AM 39.2 °F 33.0 °F 33.8 °F 81% 29.97 in 10.0 mi SSW 9.2 mph - N/A   Overcast
2:15 AM 39.2 °F 32.5 °F 33.8 °F 81% 29.97 in 10.0 mi SW 10.4 mph - N/A   Overcast
2:35 AM 39.2 °F 33.6 °F 35.6 °F 87% 29.97 in 10.0 mi SW 8.1 mph - N/A   Overcast
2:55 AM 39.2 °F 32.5 °F 35.6 °F 87% 29.96 in 10.0 mi SW 10.4 mph - N/A   Overcast
3:15 AM 39.2 °F 32.5 °F 33.8 °F 81% 29.96 in 10.0 mi SSW 10.4 mph - N/A   Overcast
3:35 AM 39.2 °F 33.6 °F 33.8 °F 81% 29.97 in 10.0 mi SSW 8.1 mph - N/A   Overcast
3:55 AM 39.2 °F 34.2 °F 33.8 °F 81% 29.98 in 10.0 mi SSW 6.9 mph - N/A   Overcast
4:15 AM 39.2 °F 33.6 °F 33.8 °F 81% 29.99 in 10.0 mi SW 8.1 mph - N/A   Overcast
4:35 AM 39.2 °F 32.5 °F 33.8 °F 81% 30.00 in 10.0 mi SW 10.4 mph - N/A   Overcast
4:55 AM 39.2 °F 37.0 °F 33.8 °F 81% 30.01 in 10.0 mi South 3.5 mph - N/A   Overcast
5:15 AM 39.2 °F 37.0 °F 33.8 °F 81% 30.02 in 10.0 mi South 3.5 mph - N/A   Mostly Cloudy
5:35 AM 37.4 °F 32.8 °F 32.0 °F 81% 30.02 in 10.0 mi South 5.8 mph - N/A   Mostly Cloudy
5:55 AM 37.4 °F 33.8 °F 32.0 °F 81% 30.02 in 10.0 mi South 4.6 mph - N/A   Scattered Clouds
6:15 AM 37.4 °F 30.3 °F 32.0 °F 81% 30.03 in 10.0 mi South 10.4 mph - N/A   Clear
6:35 AM 37.4 °F 30.3 °F 30.2 °F 75% 30.03 in 10.0 mi SSW 10.4 mph - N/A   Clear
6:55 AM 39.2 °F 32.5 °F 30.2 °F 70% 30.03 in 10.0 mi SW 10.4 mph - N/A   Clear
7:15 AM 39.2 °F 33.0 °F 30.2 °F 70% 30.03 in 10.0 mi WSW 9.2 mph 18.4 mph N/A   Clear
7:35 AM 41.0 °F 34.3 °F 32.0 °F 70% 30.03 in 10.0 mi WSW 11.5 mph 19.6 mph N/A   Clear
7:55 AM 42.8 °F 34.0 °F 32.0 °F 66% 30.04 in 10.0 mi WSW 20.7 mph 26.5 mph N/A   Clear
8:15 AM 42.8 °F 34.3 °F 32.0 °F 66% 30.05 in 10.0 mi SW 19.6 mph 28.8 mph N/A   Clear
8:35 AM 44.6 °F 36.4 °F 33.8 °F 66% 30.06 in 10.0 mi WSW 20.7 mph 25.3 mph N/A   Clear
8:55 AM 44.6 °F 36.4 °F 33.8 °F 66% 30.06 in 10.0 mi WSW 20.7 mph 25.3 mph N/A   Clear
9:15 AM 46.4 °F 39.2 °F 33.8 °F 62% 30.08 in 10.0 mi WSW 18.4 mph - N/A   Clear
9:35 AM 48.2 °F - 33.8 °F 58% 30.08 in 10.0 mi WSW 16.1 mph 20.7 mph N/A   Clear
9:55 AM 48.2 °F - 33.8 °F 58% 30.09 in 10.0 mi WSW 16.1 mph 21.9 mph N/A   Clear
10:15 AM 50.0 °F - 32.0 °F 50% 30.09 in 10.0 mi WSW 17.3 mph 23.0 mph N/A   Clear
10:35 AM 51.8 °F - 32.0 °F 47% 30.09 in 10.0 mi WSW 16.1 mph 21.9 mph N/A   Clear
10:55 AM 51.8 °F - 32.0 °F 47% 30.09 in 10.0 mi WSW 12.7 mph 18.4 mph N/A   Clear
11:15 AM 53.6 °F - 30.2 °F 41% 30.09 in 10.0 mi WSW 15.0 mph 20.7 mph N/A   Clear
11:35 AM 53.6 °F - 30.2 °F 41% 30.09 in 10.0 mi SW 12.7 mph 17.3 mph N/A   Clear
11:55 AM 53.6 °F - 28.4 °F 38% 30.09 in 10.0 mi SW 12.7 mph 18.4 mph N/A   Scattered Clouds
12:15 PM 55.4 °F - 30.2 °F 38% 30.08 in 10.0 mi WSW 11.5 mph 17.3 mph N/A   Scattered Clouds
12:35 PM 53.6 °F - 26.6 °F 35% 30.08 in 10.0 mi North 6.9 mph - N/A   Scattered Clouds
12:55 PM 55.4 °F - 26.6 °F 33% 30.08 in 10.0 mi West 4.6 mph - N/A   Scattered Clouds
1:15 PM 55.4 °F - 26.6 °F 33% 30.07 in 10.0 mi WNW 5.8 mph 16.1 mph N/A   Unknown
1:35 PM 57.2 °F - 26.6 °F 31% 30.08 in 10.0 mi West 9.2 mph 17.3 mph N/A   Unknown
1:55 PM 55.4 °F - 26.6 °F 33% 30.07 in 10.0 mi West 5.8 mph 16.1 mph N/A   Unknown
2:15 PM 57.2 °F - 26.6 °F 31% 30.09 in 10.0 mi NW 13.8 mph 17.3 mph N/A   Unknown
2:35 PM 57.2 °F - 26.6 °F 31% 30.09 in 10.0 mi WNW 9.2 mph - N/A   Clear
2:55 PM 57.2 °F - 26.6 °F 31% 30.09 in 10.0 mi West 6.9 mph - N/A   Unknown
3:15 PM 57.2 °F - 26.6 °F 31% 30.10 in 10.0 mi NW 9.2 mph - N/A   Scattered Clouds
3:35 PM 57.2 °F - 26.6 °F 31% 30.10 in 10.0 mi West 6.9 mph - N/A   Scattered Clouds
3:55 PM 57.2 °F - 24.8 °F 29% 30.10 in 10.0 mi WNW 4.6 mph - N/A   Clear
4:15 PM 57.2 °F - 26.6 °F 31% 30.10 in 10.0 mi WNW 10.4 mph - N/A   Clear
4:35 PM 57.2 °F - 26.6 °F 31% 30.11 in 10.0 mi West 10.4 mph 16.1 mph N/A   Clear
4:55 PM 55.4 °F - 26.6 °F 33% 30.10 in 10.0 mi WSW 15.0 mph - N/A   Clear
5:15 PM 55.4 °F - 28.4 °F 36% 30.11 in 10.0 mi WSW 15.0 mph - N/A   Clear
5:35 PM 53.6 °F - 30.2 °F 41% 30.12 in 10.0 mi WSW 16.1 mph 21.9 mph N/A   Clear
5:55 PM 51.8 °F - 30.2 °F 44% 30.13 in 10.0 mi WSW 13.8 mph 18.4 mph N/A   Clear
6:15 PM 50.0 °F - 30.2 °F 47% 30.14 in 10.0 mi WSW 13.8 mph - N/A   Clear
6:35 PM 48.2 °F - 32.0 °F 54% 30.15 in 10.0 mi SW 12.7 mph 21.9 mph N/A   Clear
6:55 PM 48.2 °F - 32.0 °F 54% 30.16 in 10.0 mi SW 16.1 mph 19.6 mph N/A   Clear
7:15 PM 46.4 °F 39.8 °F 32.0 °F 57% 30.17 in 10.0 mi SW 16.1 mph 24.2 mph N/A   Clear
7:35 PM 44.6 °F 37.8 °F 32.0 °F 61% 30.17 in 10.0 mi SW 15.0 mph 20.7 mph N/A   Clear
7:55 PM 44.6 °F 37.8 °F 30.2 °F 57% 30.18 in 10.0 mi SW 15.0 mph - N/A   Clear
8:15 PM 44.6 °F 38.4 °F 30.2 °F 57% 30.19 in 10.0 mi SW 12.7 mph 18.4 mph N/A   Clear
8:35 PM 42.8 °F 37.5 °F 30.2 °F 61% 30.19 in 10.0 mi SW 9.2 mph - N/A   Clear
8:55 PM 42.8 °F 37.5 °F 30.2 °F 61% 30.19 in 10.0 mi SW 9.2 mph - N/A   Clear
9:15 PM 42.8 °F - 30.2 °F 61% 30.20 in 10.0 mi Calm Calm - N/A   Clear
9:35 PM 42.8 °F - 30.2 °F 61% 30.21 in 10.0 mi Calm Calm - N/A   Clear
9:55 PM 42.8 °F 39.3 °F 30.2 °F 61% 30.22 in 10.0 mi WSW 5.8 mph - N/A   Clear
10:15 PM 42.8 °F 40.1 °F 30.2 °F 61% 30.22 in 10.0 mi WSW 4.6 mph - N/A   Clear
10:35 PM 42.8 °F - 30.2 °F 61% 30.23 in 10.0 mi Calm Calm - N/A   Clear
10:55 PM 42.8 °F - 30.2 °F 61% 30.23 in 10.0 mi Calm Calm - N/A   Clear
11:15 PM 39.2 °F - 30.2 °F 70% 30.24 in 10.0 mi Calm Calm - N/A   Clear
11:35 PM 39.2 °F 35.0 °F 30.2 °F 70% 30.24 in 10.0 mi SE 5.8 mph - N/A   Clear
11:55 PM 39.2 °F 35.0 °F 30.2 °F 70% 30.25 in 10.0 mi SSE 5.8 mph - N/A   Clear